Lid_Strength_Index
1 1 1 2 2 3 4 8 11 5 5 9 11 11 12 10 10 9 10 10 11 12 12 13 13 13 11 8 8 11 9 11 14 13 10 8 9 11 9 13 14 12 12 11
1 1 2 3 4 4 6 10 10 6 6 12 12 11 12 11 10 10 10 11 10 10 12 14 12 11 8 7 8 9 8 12 16 15 11 8 10 10 9 9 9 13 14 12
1 2 2 3 4 4 6 9 12 9 9 10 12 14 13 12 9 9 9 10 10 11 12 10 12 11 8 6 6 6 7 11 13 16 13 10 12 10 10 10 12 12 12 10
2 2 2 3 3 5 6 9 11 11 13 11 12 12 12 13 12 9 8 9 9 10 12 12 11 10 9 7 6 7 8 13 11 11 11 11 11 12 12 13 10 12 11 10
2 2 2 3 3 5 7 9 10 10 11 11 12 12 12 12 11 10 10 10 9 9 12 10 11 9 8 9 7 8 8 12 11 12 10 10 12 11 12 12 11 10 9 9
2 2 2 2 3 4 7 8 8 9 11 11 12 12 11 11 9 8 8 8 10 10 9 7 7 6 6 7 8 9 10 12 13 14 10 11 14 12 12 11 9 9 10 8
2 3 2 2 2 3 5 6 7 10 12 11 11 10 10 9 9 10 8 7 9 7 4 5 5 6 7 7 7 7 11 12 12 14 13 19 10 8 9 10 10 9 8 8
2 2 3 2 2 2 4 4 6 9 12 10 10 10 10 8 7 8 8 6 5 4 6 10 11 11 11 10 8 8 7 11 14 16 17 14 12 10 10 11 12 8 9 8
2 2 2 2 2 2 3 4 4 8 10 10 8 10 8 9 9 9 8 6 5 6 8 11 15 16 14 13 11 7 8 9 13 15 18 20 14 9 7 8 14 9 8 9
2 2 2 2 2 2 2 3 4 7 10 8 8 9 9 7 9 11 9 8 8 7 10 13 14 15 12 16 15 14 13 13 16 15 17 16 10 8 8 15 14 11 10 10
2 2 2 2 2 2 2 4 3 6 8 7 6 6 7 7 7 11 9 9 9 10 12 13 13 14 13 14 12 13 14 15 16 16 18 19 10 9 12 10 10 10 10 10
2 2 2 2 2 2 3 4 3 3 7 6 4 4 4 4 5 7 8 9 10 9 12 11 12 13 12 13 16 10 15 13 14 15 15 13 10 10 9 9 11 11 11 11
2 2 1 2 2 2 3 3 3 4 6 6 6 6 4 2 3 3 8 7 7 7 8 10 11 13 12 14 13 13 12 11 14 14 13 12 10 9 9 9 10 10 10 10
2 2 2 2 2 2 3 3 3 4 6 7 6 4 5 3 3 3 3 5 5 6 8 10 11 13 11 13 13 13 12 11 14 13 12 11 10 10 9 9 9 10 10 10
2 2 2 2 2 2 2 2 3 3 5 7 6 5 5 4 4 4 4 4 6 7 9 11 12 11 12 11 12 14 11 12 14 14 11 11 11 9 8 9 10 10 11 11
2 2 2 2 2 2 2 4 3 3 3 6 8 5 6 5 5 5 5 5 5 6 9 10 9 9 11 12 14 11 10 10 10 11 10 10 10 9 9 9 9 10 10 10
2 2 2 2 2 2 4 5 4 4 3 6 8 8 6 6 6 5 5 4 6 6 7 8 9 9 10 12 14 10 9 9 9 9 9 11 9 10 9 9 9 8 10 9
2 2 2 2 3 4 4 3 4 4 5 6 9 9 7 5 8 8 6 5 5 6 6 6 8 8 9 13 10 8 8 9 9 10 9 10 9 8 9 9 9 10 10 10
2 2 3 2 3 4 4 3 3 3 5 7 8 11 11 6 7 8 6 5 9 6 8 8 7 10 12 10 9 8 8 8 9 10 10 10 11 11 10 11 10 10 10 9
2 3 3 5 4 3 2 4 5 6 6 6 9 7 10 6 7 8 8 6 9 11 8 6 11 11 6 6 6 6 7 7 8 10 11 11 12 11 11 11 11 11 10 10
3 3 4 3 3 4 4 7 7 6 8 7 7 7 8 4 8 9 7 9 9 12 10 10 11 12 7 5 5 4 4 6 7 7 8 8 9 10 10 11 10 11 11 10
3 3 3 3 5 5 8 8 7 8 9 6 7 7 6 6 5 8 7 10 9 13 7 9 14 9 6 5 5 5 4 4 5 6 7 8 8 8 9 9 9 9 10 10
2 3 5 5 6 10 10 12 10 8 6 5 6 7 6 6 5 8 8 10 11 7 9 13 10 6 5 5 5 5 4 4 5 5 5 6 7 7 7 8 8 8 9 9
5 7 12 8 9 8 7 7 7 5 5 5 6 7 7 6 8 7 10 8 8 11 14 13 7 6 5 4 4 5 5 4 4 5 5 5 5 6 6 7 7 8 9 8
6 6 10 8 6 6 5 5 6 5 5 5 6 6 6 7 8 7 9 10 12 11 11 7 5 5 4 4 4 4 5 4 3 3 4 4 4 4 4 4 5 6 7 7
5 6 7 6 7 6 6 6 6 5 5 6 6 7 8 9 8 9 11 12 12 10 7 5 4 5 4 4 3 3 5 4 3 3 3 3 3 3 3 3 4 5 6 7
6 6 5 5 6 6 5 5 5 5 6 7 8 10 10 8 10 10 9 10 8 6 4 4 4 4 4 3 3 3 3 3 3 3 2 2 2 2 3 5 5 5 4 5